Flag Weather past 2 weeks in Zagreb, Croatia

Now
39 °F

Fog.


Feels Like: 37 °F
Forecast: 32 / 40 °F
Wind: 3 mph from East

Location: Zagreb / Pleso

Current Time: Nov 27, 2014 at 3:38:23 PM

Latest Report: Nov 27, 2014 at 3:00 PM


Visibility: 3 mi

Pressure: 30.04 "Hg

Humidity: 81%

Dew point: 34 °F

Location of ZagrebLocation

Historic Weather in Zagreb — Graph

°F

Zagreb temperature yesterday

Maximum temperature yesterday: 41 °F (at 12:30 PM)
Minimum temperature yesterday: 37 °F (at 6:30 AM)
Average temperature yesterday: 39 °F

Past Weeks' High & Low Weather Summary

 TemperatureHumidityPressure
High66 °F (Nov 16, 3:30 PM)100% (Nov 15, 8:30 AM)30.42 "Hg (Nov 15, 8:30 AM)
Low36 °F (Nov 20, 7:00 AM)59% (Nov 17, 2:00 PM)29.65 "Hg (Nov 18, 2:00 AM)
Average46 °F89%30.06 "Hg
* Reported Nov 12 2:00 PM — Nov 27 2:30 PM, Zagreb, Weather by CustomWeather, © 2014

Note: Actual official high and low records may vary slightly from our data, if they occured in-between our weather recording intervals... More about our weather records

Advertising

Zagreb weather history for previous 24 hours

 ConditionsComfort  
Time TempWeatherWind HumidityBarometerVisibility
2:30 PM
Nov 27
39 °FFog.3 mph87%30.04 "Hg3 mi
2:00 PM39 °FFog.3 mph87%30.04 "Hg2 mi
1:30 PM39 °FDrizzle. Fog.3 mph87%30.04 "Hg2 mi
1:00 PM39 °FDrizzle. Fog.2 mph87%30.07 "Hg2 mi
12:30 PM39 °FOvercast.3 mph81%30.07 "Hg4 mi
12:00 PM39 °FOvercast.3 mph81%30.07 "Hg4 mi
11:30 AM39 °FMostly cloudy.3 mph81%30.09 "Hg4 mi
11:00 AM39 °FOvercast.3 mph81%30.09 "Hg4 mi
10:30 AM39 °FMostly cloudy.5 mph81%30.09 "Hg4 mi
10:00 AM37 °FBroken clouds.5 mph87%30.09 "Hg4 mi
9:30 AM37 °FFog.5 mph87%30.09 "Hg3 mi
9:00 AM37 °FFog.5 mph87%30.09 "Hg3 mi
8:30 AM37 °FRain. Fog.6 mph87%30.09 "Hg3 mi
8:00 AM37 °FFog.5 mph87%30.09 "Hg2 mi
7:30 AM37 °FFog.5 mph87%30.09 "Hg2 mi
7:00 AM37 °FOvercast.7 mph87%30.09 "Hg4 mi
6:30 AM37 °FOvercast.6 mph87%30.09 "HgN/A
6:00 AM37 °FOvercast.6 mph87%30.09 "HgN/A
5:30 AM37 °FPassing clouds.5 mph87%30.09 "HgN/A
5:00 AM37 °FPassing clouds.5 mph87%30.09 "HgN/A
4:30 AM37 °FClear.5 mph93%30.09 "Hg10 mi
4:00 AM37 °FPassing clouds.3 mph93%30.09 "HgN/A
3:30 AM37 °FPassing clouds.3 mph93%30.12 "HgN/A
3:00 AM37 °FOvercast.3 mph87%30.12 "HgN/A
2:30 AM37 °FOvercast.3 mph93%30.12 "HgN/A
2:00 AM37 °FOvercast.5 mph87%30.12 "HgN/A
1:30 AM37 °FClear.5 mph87%30.12 "Hg10 mi
1:00 AM37 °FPassing clouds.3 mph87%30.12 "HgN/A
12:30 AM37 °FClear.2 mph87%30.15 "Hg10 mi
12:00 AM37 °FPassing clouds.3 mph87%30.15 "HgN/A
11:30 PM
Nov 26
37 °FPassing clouds.6 mph87%30.15 "HgN/A
11:00 PM37 °FPassing clouds.5 mph87%30.15 "HgN/A
10:30 PM37 °FPassing clouds.5 mph87%30.15 "HgN/A
10:00 PM37 °FLight rain. Passing clouds.6 mph87%30.15 "HgN/A
9:30 PM37 °FLight rain. Passing clouds.3 mph87%30.15 "HgN/A
9:00 PM37 °FPassing clouds.5 mph87%30.18 "HgN/A
8:30 PM39 °FPassing clouds.6 mph81%30.18 "HgN/A
8:00 PM39 °FClear.7 mph81%30.15 "Hg10 mi
7:30 PM39 °FClear.6 mph81%30.18 "Hg5 mi
7:00 PM39 °FClear.6 mph81%30.18 "Hg5 mi
6:30 PM39 °FClear.6 mph81%30.18 "Hg5 mi
6:00 PM39 °FClear.5 mph81%30.18 "Hg5 mi
5:30 PM41 °FPassing clouds.6 mph76%30.15 "Hg5 mi
5:00 PM41 °FPassing clouds.6 mph76%30.15 "Hg5 mi
4:30 PM41 °FPassing clouds.3 mph76%30.15 "HgN/A
4:00 PM41 °FPassing clouds.2 mph76%30.15 "HgN/A
3:30 PM41 °FSunny.2 mph76%30.18 "Hg10 mi
3:00 PM41 °FSunny.2 mph76%30.18 "Hg10 mi
Weather by CustomWeather, © 2014

See weather overviewHow to use our weather pages